Year,Month,Day,Hour,Minute,Value (Times are PST for temperature in C)
2006,06,16,00,00,16.10
2006,06,16,00,01,16.10
2006,06,16,00,02,16.10
2006,06,16,00,03,16.00
2006,06,16,00,04,15.90
2006,06,16,00,05,15.90
2006,06,16,00,06,15.90
2006,06,16,00,07,15.80
2006,06,16,00,08,15.80
2006,06,16,00,09,15.80
2006,06,16,00,10,15.80
2006,06,16,00,11,15.80
2006,06,16,00,12,15.80
2006,06,16,00,13,15.80
2006,06,16,00,14,15.80
2006,06,16,00,15,15.80
2006,06,16,00,16,15.70
2006,06,16,00,17,15.70
2006,06,16,00,18,15.70
2006,06,16,00,19,15.70
2006,06,16,00,20,15.60
2006,06,16,00,21,15.60
2006,06,16,00,22,15.60
2006,06,16,00,23,15.60
2006,06,16,00,24,15.60
2006,06,16,00,25,15.60
2006,06,16,00,26,15.60
2006,06,16,00,27,15.60
2006,06,16,00,28,15.60
2006,06,16,00,29,15.60
2006,06,16,00,30,15.60
2006,06,16,00,31,15.60
2006,06,16,00,32,15.60
2006,06,16,00,33,15.60
2006,06,16,00,34,15.60
2006,06,16,00,35,15.60
2006,06,16,00,36,15.60
2006,06,16,00,37,15.60
2006,06,16,00,38,15.60
2006,06,16,00,39,15.60
2006,06,16,00,40,15.60
2006,06,16,00,41,15.60
2006,06,16,00,42,15.60
2006,06,16,00,43,15.60
2006,06,16,00,44,15.60
2006,06,16,00,45,15.60
2006,06,16,00,46,15.60
2006,06,16,00,47,15.60
2006,06,16,00,48,15.60
2006,06,16,00,49,15.60
2006,06,16,00,50,15.60
2006,06,16,00,51,15.60
2006,06,16,00,52,15.50
2006,06,16,00,53,15.50
2006,06,16,00,54,15.50
2006,06,16,00,55,15.50
2006,06,16,00,56,15.50
2006,06,16,00,57,15.50
2006,06,16,00,58,15.50
2006,06,16,00,59,15.40
2006,06,16,01,00,15.40
2006,06,16,01,01,15.40
2006,06,16,01,02,15.40
2006,06,16,01,03,15.30
2006,06,16,01,04,15.30
2006,06,16,01,05,15.30
2006,06,16,01,06,15.30
2006,06,16,01,07,15.30
2006,06,16,01,08,15.30
2006,06,16,01,09,15.30
2006,06,16,01,10,15.30
2006,06,16,01,11,15.30
2006,06,16,01,12,15.30
2006,06,16,01,13,15.30
2006,06,16,01,14,15.30
2006,06,16,01,15,15.30
2006,06,16,01,16,15.30
2006,06,16,01,17,15.30
2006,06,16,01,18,15.20
2006,06,16,01,19,15.20
2006,06,16,01,20,15.20
2006,06,16,01,21,15.20
2006,06,16,01,22,15.20
2006,06,16,01,23,15.20
2006,06,16,01,24,15.20
2006,06,16,01,25,15.20
2006,06,16,01,26,15.20
2006,06,16,01,27,15.10
2006,06,16,01,28,15.10
2006,06,16,01,29,15.10
2006,06,16,01,30,15.10
2006,06,16,01,31,15.10
2006,06,16,01,32,15.10
2006,06,16,01,33,15.00
2006,06,16,01,34,15.00
2006,06,16,01,35,15.00
2006,06,16,01,36,15.00
2006,06,16,01,37,15.00
2006,06,16,01,38,15.00
2006,06,16,01,39,14.90
2006,06,16,01,40,14.90
2006,06,16,01,41,14.90
2006,06,16,01,42,14.90
2006,06,16,01,43,14.90
2006,06,16,01,44,14.90
2006,06,16,01,45,14.90
2006,06,16,01,46,14.90
2006,06,16,01,47,14.80
2006,06,16,01,48,14.80
2006,06,16,01,49,14.80
2006,06,16,01,50,14.80
2006,06,16,01,51,14.80
2006,06,16,01,52,14.80
2006,06,16,01,53,14.80
2006,06,16,01,54,14.80
2006,06,16,01,55,14.80
2006,06,16,01,56,14.70
2006,06,16,01,57,14.70
2006,06,16,01,58,14.70
2006,06,16,01,59,14.70
2006,06,16,02,00,14.60
2006,06,16,02,01,14.60
2006,06,16,02,02,14.60
2006,06,16,02,03,14.50
2006,06,16,02,04,14.50
2006,06,16,02,05,14.40
2006,06,16,02,06,14.40
2006,06,16,02,07,14.20
2006,06,16,02,08,14.10
2006,06,16,02,09,14.10
2006,06,16,02,10,14.00
2006,06,16,02,11,13.90
2006,06,16,02,12,13.90
2006,06,16,02,13,13.80
2006,06,16,02,14,13.80
2006,06,16,02,15,13.70
2006,06,16,02,16,13.70
2006,06,16,02,17,13.70
2006,06,16,02,18,13.60
2006,06,16,02,19,13.60
2006,06,16,02,20,13.50
2006,06,16,02,21,13.50
2006,06,16,02,22,13.50
2006,06,16,02,23,13.50
2006,06,16,02,24,13.50
2006,06,16,02,25,13.50
2006,06,16,02,26,13.50
2006,06,16,02,27,13.50
2006,06,16,02,28,13.50
2006,06,16,02,29,13.40
2006,06,16,02,30,13.40
2006,06,16,02,31,13.40
2006,06,16,02,32,13.40
2006,06,16,02,33,13.40
2006,06,16,02,34,13.40
2006,06,16,02,35,13.40
2006,06,16,02,36,13.40
2006,06,16,02,37,13.40
2006,06,16,02,38,13.40
2006,06,16,02,39,13.40
2006,06,16,02,40,13.40
2006,06,16,02,41,13.40
2006,06,16,02,42,13.40
2006,06,16,02,43,13.40
2006,06,16,02,44,13.30
2006,06,16,02,45,13.30
2006,06,16,02,46,13.30
2006,06,16,02,47,13.30
2006,06,16,02,48,13.30
2006,06,16,02,49,13.30
2006,06,16,02,50,13.30
2006,06,16,02,51,13.30
2006,06,16,02,52,13.20
2006,06,16,02,53,13.20
2006,06,16,02,54,13.20
2006,06,16,02,55,13.10
2006,06,16,02,56,13.10
2006,06,16,02,57,13.10
2006,06,16,02,58,13.00
2006,06,16,02,59,13.00
2006,06,16,03,00,12.90
2006,06,16,03,01,12.90
2006,06,16,03,02,12.80
2006,06,16,03,03,12.80
2006,06,16,03,04,12.80
2006,06,16,03,05,12.70
2006,06,16,03,06,12.70
2006,06,16,03,07,12.60
2006,06,16,03,08,12.50
2006,06,16,03,09,12.50
2006,06,16,03,10,12.50
2006,06,16,03,11,12.40
2006,06,16,03,12,12.40
2006,06,16,03,13,12.30
2006,06,16,03,14,12.30
2006,06,16,03,15,12.20
2006,06,16,03,16,12.20
2006,06,16,03,17,12.10
2006,06,16,03,18,12.00
2006,06,16,03,19,12.00
2006,06,16,03,20,11.90
2006,06,16,03,21,11.80
2006,06,16,03,22,11.70
2006,06,16,03,23,11.60
2006,06,16,03,24,11.60
2006,06,16,03,25,11.50
2006,06,16,03,26,11.40
2006,06,16,03,27,11.40
2006,06,16,03,28,11.40
2006,06,16,03,29,11.30
2006,06,16,03,30,11.30
2006,06,16,03,31,11.30
2006,06,16,03,32,11.30
2006,06,16,03,33,11.30
2006,06,16,03,34,11.20
2006,06,16,03,35,11.20
2006,06,16,03,36,11.20
2006,06,16,03,37,11.20
2006,06,16,03,38,11.20
2006,06,16,03,39,11.20
2006,06,16,03,40,11.20
2006,06,16,03,41,11.20
2006,06,16,03,42,11.20
2006,06,16,03,43,11.20
2006,06,16,03,44,11.20
2006,06,16,03,45,11.20
2006,06,16,03,46,11.20
2006,06,16,03,47,11.20
2006,06,16,03,48,11.20
2006,06,16,03,49,11.30
2006,06,16,03,50,11.30
2006,06,16,03,51,11.30
2006,06,16,03,52,11.40
2006,06,16,03,53,11.40
2006,06,16,03,54,11.40
2006,06,16,03,55,11.40
2006,06,16,03,56,11.40
2006,06,16,03,57,11.40
2006,06,16,03,58,11.40
2006,06,16,03,59,11.40
2006,06,16,04,00,11.40
2006,06,16,04,01,11.40
2006,06,16,04,02,11.40
2006,06,16,04,03,11.40
2006,06,16,04,04,11.40
2006,06,16,04,05,11.40
2006,06,16,04,06,11.40
2006,06,16,04,07,11.40
2006,06,16,04,08,11.40
2006,06,16,04,09,11.50
2006,06,16,04,10,11.50
2006,06,16,04,11,11.40
2006,06,16,04,12,11.40
2006,06,16,04,13,11.40
2006,06,16,04,14,11.40
2006,06,16,04,15,11.40
2006,06,16,04,16,11.40
2006,06,16,04,17,11.40
2006,06,16,04,18,11.40
2006,06,16,04,19,11.40
2006,06,16,04,20,11.40
2006,06,16,04,21,11.40
2006,06,16,04,22,11.40
2006,06,16,04,23,11.40
2006,06,16,04,24,11.40
2006,06,16,04,25,11.40
2006,06,16,04,26,11.40
2006,06,16,04,27,11.40
2006,06,16,04,28,11.40
2006,06,16,04,29,11.40
2006,06,16,04,30,11.40
2006,06,16,04,31,11.40
2006,06,16,04,32,11.40
2006,06,16,04,33,11.40
2006,06,16,04,34,11.40
2006,06,16,04,35,11.40
2006,06,16,04,36,11.40
2006,06,16,04,37,11.40
2006,06,16,04,38,11.40
2006,06,16,04,39,11.40
2006,06,16,04,40,11.40
2006,06,16,04,41,11.40
2006,06,16,04,42,11.40
2006,06,16,04,43,11.40
2006,06,16,04,44,11.40
2006,06,16,04,45,11.40
2006,06,16,04,46,11.40
2006,06,16,04,47,11.40
2006,06,16,04,48,11.40
2006,06,16,04,49,11.40
2006,06,16,04,50,11.40
2006,06,16,04,51,11.40
2006,06,16,04,52,11.40
2006,06,16,04,53,11.40
2006,06,16,04,54,11.40
2006,06,16,04,55,11.40
2006,06,16,04,56,11.40
2006,06,16,04,57,11.40
2006,06,16,04,58,11.40
2006,06,16,04,59,11.40
2006,06,16,05,00,11.40
2006,06,16,05,01,11.40
2006,06,16,05,02,11.40
2006,06,16,05,03,11.40
2006,06,16,05,04,11.40
2006,06,16,05,05,11.40
2006,06,16,05,06,11.40
2006,06,16,05,07,11.40
2006,06,16,05,08,11.40
2006,06,16,05,09,11.40
2006,06,16,05,10,11.40
2006,06,16,05,11,11.40
2006,06,16,05,12,11.40
2006,06,16,05,13,11.40
2006,06,16,05,14,11.40
2006,06,16,05,15,11.40
2006,06,16,05,16,11.40
2006,06,16,05,17,11.40
2006,06,16,05,18,11.40
2006,06,16,05,19,11.40
2006,06,16,05,20,11.40
2006,06,16,05,21,11.40
2006,06,16,05,22,11.40
2006,06,16,05,23,11.40
2006,06,16,05,24,11.40
2006,06,16,05,25,11.40
2006,06,16,05,26,11.40
2006,06,16,05,27,11.40
2006,06,16,05,28,11.40
2006,06,16,05,29,11.40
2006,06,16,05,30,11.40
2006,06,16,05,31,11.40
2006,06,16,05,32,11.40
2006,06,16,05,33,11.50
2006,06,16,05,34,11.60
2006,06,16,05,35,11.60
2006,06,16,05,36,11.60
2006,06,16,05,37,11.60
2006,06,16,05,38,11.60
2006,06,16,05,39,11.60
2006,06,16,05,40,11.60
2006,06,16,05,41,11.60
2006,06,16,05,42,11.60
2006,06,16,05,43,11.60
2006,06,16,05,44,11.70
2006,06,16,05,45,11.70
2006,06,16,05,46,11.70
2006,06,16,05,47,11.70
2006,06,16,05,48,11.70
2006,06,16,05,49,11.80
2006,06,16,05,50,11.80
2006,06,16,05,51,11.80
2006,06,16,05,52,11.80
2006,06,16,05,53,11.80
2006,06,16,05,54,11.90
2006,06,16,05,55,12.00
2006,06,16,05,56,12.00
2006,06,16,05,57,12.00
2006,06,16,05,58,12.00
2006,06,16,05,59,12.00
2006,06,16,06,00,12.00
2006,06,16,06,01,12.00
2006,06,16,06,02,12.00
2006,06,16,06,03,12.00
2006,06,16,06,04,12.00
2006,06,16,06,05,12.00
2006,06,16,06,06,12.10
2006,06,16,06,07,12.10
2006,06,16,06,08,12.10
2006,06,16,06,09,12.10
2006,06,16,06,10,12.20
2006,06,16,06,11,12.20
2006,06,16,06,12,12.20
2006,06,16,06,13,12.20
2006,06,16,06,14,12.20
2006,06,16,06,15,12.20
2006,06,16,06,16,12.20
2006,06,16,06,17,12.20
2006,06,16,06,18,12.20
2006,06,16,06,19,12.20
2006,06,16,06,20,12.20
2006,06,16,06,21,12.20
2006,06,16,06,22,12.20
2006,06,16,06,23,12.20
2006,06,16,06,24,12.20
2006,06,16,06,25,12.20
2006,06,16,06,26,12.20
2006,06,16,06,27,12.20
2006,06,16,06,28,12.20
2006,06,16,06,29,12.20
2006,06,16,06,30,12.20
2006,06,16,06,31,12.20
2006,06,16,06,32,12.20
2006,06,16,06,33,12.20
2006,06,16,06,34,12.30
2006,06,16,06,35,12.30
2006,06,16,06,36,12.30
2006,06,16,06,37,12.30
2006,06,16,06,38,12.30
2006,06,16,06,39,12.30
2006,06,16,06,40,12.30
2006,06,16,06,41,12.30
2006,06,16,06,42,12.30
2006,06,16,06,43,12.30
2006,06,16,06,44,12.30
2006,06,16,06,45,12.30
2006,06,16,06,46,12.30
2006,06,16,06,47,12.30
2006,06,16,06,48,12.30
2006,06,16,06,49,12.30
2006,06,16,06,50,12.30
2006,06,16,06,51,12.30
2006,06,16,06,52,12.30
2006,06,16,06,53,12.30
2006,06,16,06,54,12.30
2006,06,16,06,55,12.30
2006,06,16,06,56,12.30
2006,06,16,06,57,12.30
2006,06,16,06,58,12.30
2006,06,16,06,59,12.40
2006,06,16,07,00,12.40
2006,06,16,07,01,12.40
2006,06,16,07,02,12.40
2006,06,16,07,03,12.40
2006,06,16,07,04,12.50
2006,06,16,07,05,12.50
2006,06,16,07,06,12.50
2006,06,16,07,07,12.50
2006,06,16,07,08,12.60
2006,06,16,07,09,12.60
2006,06,16,07,10,12.70
2006,06,16,07,11,12.70
2006,06,16,07,12,12.80
2006,06,16,07,13,12.80
2006,06,16,07,14,12.80
2006,06,16,07,15,12.80
2006,06,16,07,16,12.90
2006,06,16,07,17,12.90
2006,06,16,07,18,13.00
2006,06,16,07,19,13.00
2006,06,16,07,20,13.10
2006,06,16,07,21,13.10
2006,06,16,07,22,13.20
2006,06,16,07,23,13.30
2006,06,16,07,24,13.40
2006,06,16,07,25,13.50
2006,06,16,07,26,13.50
2006,06,16,07,27,13.60
2006,06,16,07,28,13.70
2006,06,16,07,29,13.70
2006,06,16,07,30,13.80
2006,06,16,07,31,13.90
2006,06,16,07,32,14.00
2006,06,16,07,33,14.00
2006,06,16,07,34,14.20
2006,06,16,07,35,14.20
2006,06,16,07,36,14.30
2006,06,16,07,37,14.40
2006,06,16,07,38,14.50
2006,06,16,07,39,14.60
2006,06,16,07,40,14.60
2006,06,16,07,41,14.70
2006,06,16,07,42,14.80
2006,06,16,07,43,14.80
2006,06,16,07,44,14.80
2006,06,16,07,45,15.00
2006,06,16,07,46,15.00
2006,06,16,07,47,15.10
2006,06,16,07,48,15.10
2006,06,16,07,49,15.10
2006,06,16,07,50,15.20
2006,06,16,07,51,15.30
2006,06,16,07,52,15.40
2006,06,16,07,53,15.40
2006,06,16,07,54,15.50
2006,06,16,07,55,15.60
2006,06,16,07,56,15.60
2006,06,16,07,57,15.70
2006,06,16,07,58,15.70
2006,06,16,07,59,15.70
2006,06,16,08,00,15.70
2006,06,16,08,01,15.70
2006,06,16,08,02,15.60
2006,06,16,08,03,15.60
2006,06,16,08,04,15.70
2006,06,16,08,05,15.70
2006,06,16,08,06,15.80
2006,06,16,08,07,15.80
2006,06,16,08,08,15.80
2006,06,16,08,09,15.80
2006,06,16,08,10,15.80
2006,06,16,08,11,15.70
2006,06,16,08,12,15.80
2006,06,16,08,13,15.80
2006,06,16,08,14,15.90
2006,06,16,08,15,15.90
2006,06,16,08,16,16.00
2006,06,16,08,17,16.10
2006,06,16,08,18,16.20
2006,06,16,08,19,16.20
2006,06,16,08,20,16.10
2006,06,16,08,21,15.90
2006,06,16,08,22,15.80
2006,06,16,08,23,15.80
2006,06,16,08,24,15.80
2006,06,16,08,25,15.80
2006,06,16,08,26,15.70
2006,06,16,08,27,15.70
2006,06,16,08,28,15.40
2006,06,16,08,29,15.30
2006,06,16,08,30,15.30
2006,06,16,08,31,15.30
2006,06,16,08,32,15.30
2006,06,16,08,33,15.30
2006,06,16,08,34,15.30
2006,06,16,08,35,15.30
2006,06,16,08,36,15.30
2006,06,16,08,37,15.30
2006,06,16,08,38,15.30
2006,06,16,08,39,15.30
2006,06,16,08,40,15.30
2006,06,16,08,41,15.30
2006,06,16,08,42,15.40
2006,06,16,08,43,15.50
2006,06,16,08,44,15.50
2006,06,16,08,45,15.70
2006,06,16,08,46,15.80
2006,06,16,08,47,15.90
2006,06,16,08,48,15.90
2006,06,16,08,49,16.00
2006,06,16,08,50,16.10
2006,06,16,08,51,16.10
2006,06,16,08,52,16.10
2006,06,16,08,53,16.10
2006,06,16,08,54,16.10
2006,06,16,08,55,16.00
2006,06,16,08,56,15.90
2006,06,16,08,57,15.90
2006,06,16,08,58,15.90
2006,06,16,08,59,15.90
2006,06,16,09,00,15.90
2006,06,16,09,01,16.00
2006,06,16,09,02,16.10
2006,06,16,09,03,16.10
2006,06,16,09,04,16.20
2006,06,16,09,05,16.20
2006,06,16,09,06,16.20
2006,06,16,09,07,16.30
2006,06,16,09,08,16.30
2006,06,16,09,09,16.30
2006,06,16,09,10,16.20
2006,06,16,09,11,16.10
2006,06,16,09,12,16.20
2006,06,16,09,13,16.30
2006,06,16,09,14,16.40
2006,06,16,09,15,16.40
2006,06,16,09,16,16.50
2006,06,16,09,17,16.50
2006,06,16,09,18,16.40
2006,06,16,09,19,16.40
2006,06,16,09,20,16.40
2006,06,16,09,21,16.50
2006,06,16,09,22,16.70
2006,06,16,09,23,16.70
2006,06,16,09,24,16.70
2006,06,16,09,25,16.80
2006,06,16,09,26,16.80
2006,06,16,09,27,16.80
2006,06,16,09,28,16.70
2006,06,16,09,29,16.70
2006,06,16,09,30,16.70
2006,06,16,09,31,16.70
2006,06,16,09,32,16.70
2006,06,16,09,33,16.60
2006,06,16,09,34,16.60
2006,06,16,09,35,16.60
2006,06,16,09,36,16.50
2006,06,16,09,37,16.60
2006,06,16,09,38,16.60
2006,06,16,09,39,16.60
2006,06,16,09,40,16.70
2006,06,16,09,41,16.60
2006,06,16,09,42,16.50
2006,06,16,09,43,16.40
2006,06,16,09,44,16.40
2006,06,16,09,45,16.50
2006,06,16,09,46,16.60
2006,06,16,09,47,16.60
2006,06,16,09,48,16.70
2006,06,16,09,49,16.70
2006,06,16,09,50,16.70
2006,06,16,09,51,16.70
2006,06,16,09,52,16.80
2006,06,16,09,53,16.80
2006,06,16,09,54,16.70
2006,06,16,09,55,16.60
2006,06,16,09,56,16.60
2006,06,16,09,57,16.70
2006,06,16,09,58,16.70
2006,06,16,09,59,16.60
2006,06,16,10,00,16.50
2006,06,16,10,01,16.40
2006,06,16,10,02,16.40
2006,06,16,10,03,16.50
2006,06,16,10,04,16.60
2006,06,16,10,05,16.70
2006,06,16,10,06,16.70
2006,06,16,10,07,16.90
2006,06,16,10,08,16.90
2006,06,16,10,09,17.00
2006,06,16,10,10,17.10
2006,06,16,10,11,17.20
2006,06,16,10,12,17.30
2006,06,16,10,13,17.40
2006,06,16,10,14,17.50
2006,06,16,10,15,17.60
2006,06,16,10,16,17.60
2006,06,16,10,17,17.60
2006,06,16,10,18,17.60
2006,06,16,10,19,17.70
2006,06,16,10,20,17.80
2006,06,16,10,21,17.80
2006,06,16,10,22,17.90
2006,06,16,10,23,18.10
2006,06,16,10,24,18.20
2006,06,16,10,25,18.40
2006,06,16,10,26,18.60
2006,06,16,10,27,18.60
2006,06,16,10,28,18.70
2006,06,16,10,29,18.80
2006,06,16,10,30,18.90
2006,06,16,10,31,18.80
2006,06,16,10,32,18.70
2006,06,16,10,33,18.60
2006,06,16,10,34,18.40
2006,06,16,10,35,18.10
2006,06,16,10,36,17.90
2006,06,16,10,37,17.70
2006,06,16,10,38,17.70
2006,06,16,10,39,17.50
2006,06,16,10,40,17.50
2006,06,16,10,41,17.30
2006,06,16,10,42,17.30
2006,06,16,10,43,17.30
2006,06,16,10,44,17.30
2006,06,16,10,45,17.30
2006,06,16,10,46,17.40
2006,06,16,10,47,17.40
2006,06,16,10,48,17.30
2006,06,16,10,49,17.20
2006,06,16,10,50,17.20
2006,06,16,10,51,17.20
2006,06,16,10,52,17.20
2006,06,16,10,53,17.10
2006,06,16,10,54,17.10
2006,06,16,10,55,17.10
2006,06,16,10,56,17.10
2006,06,16,10,57,17.20
2006,06,16,10,58,17.20
2006,06,16,10,59,17.30
2006,06,16,11,00,17.30
2006,06,16,11,01,17.30
2006,06,16,11,02,17.20
2006,06,16,11,03,17.00
2006,06,16,11,04,16.90
2006,06,16,11,05,16.90
2006,06,16,11,06,16.80
2006,06,16,11,07,16.70
2006,06,16,11,08,16.70
2006,06,16,11,09,16.70
2006,06,16,11,10,16.70
2006,06,16,11,11,16.70
2006,06,16,11,12,16.60
2006,06,16,11,13,16.60
2006,06,16,11,14,16.60
2006,06,16,11,15,16.60
2006,06,16,11,16,16.60
2006,06,16,11,17,16.50
2006,06,16,11,18,16.40
2006,06,16,11,19,16.30
2006,06,16,11,20,16.20
2006,06,16,11,21,16.10
2006,06,16,11,22,16.10
2006,06,16,11,23,16.10
2006,06,16,11,24,16.10
2006,06,16,11,25,16.10
2006,06,16,11,26,16.10
2006,06,16,11,27,16.10
2006,06,16,11,28,16.10
2006,06,16,11,29,16.10
2006,06,16,11,30,16.10
2006,06,16,11,31,16.00
2006,06,16,11,32,15.90
2006,06,16,11,33,15.80
2006,06,16,11,34,15.70
2006,06,16,11,35,15.60
2006,06,16,11,36,15.60
2006,06,16,11,37,15.70
2006,06,16,11,38,15.70
2006,06,16,11,39,15.80
2006,06,16,11,40,15.80
2006,06,16,11,41,15.90
2006,06,16,11,42,16.00
2006,06,16,11,43,16.10
2006,06,16,11,44,16.10
2006,06,16,11,45,16.00
2006,06,16,11,46,15.80
2006,06,16,11,47,15.80
2006,06,16,11,48,15.90
2006,06,16,11,49,15.90
2006,06,16,11,50,15.80
2006,06,16,11,51,15.90
2006,06,16,11,52,15.90
2006,06,16,11,53,15.90
2006,06,16,11,54,15.80
2006,06,16,11,55,15.80
2006,06,16,11,56,15.70
2006,06,16,11,57,15.70
2006,06,16,11,58,15.80
2006,06,16,11,59,15.80
2006,06,16,12,00,15.80
2006,06,16,12,01,15.80
2006,06,16,12,02,15.80
2006,06,16,12,03,15.80
2006,06,16,12,04,15.80
2006,06,16,12,05,15.90
2006,06,16,12,06,16.00
2006,06,16,12,07,16.10
2006,06,16,12,08,16.10
2006,06,16,12,09,16.10
2006,06,16,12,10,16.10
2006,06,16,12,11,16.10
2006,06,16,12,12,16.10
2006,06,16,12,13,16.10
2006,06,16,12,14,16.10
2006,06,16,12,15,16.10
2006,06,16,12,16,16.10
2006,06,16,12,17,16.10
2006,06,16,12,18,16.00
2006,06,16,12,19,15.90
2006,06,16,12,20,15.90
2006,06,16,12,21,15.80
2006,06,16,12,22,15.70
2006,06,16,12,23,15.70
2006,06,16,12,24,15.60
2006,06,16,12,25,15.60
2006,06,16,12,26,15.60
2006,06,16,12,27,15.60
2006,06,16,12,28,15.60
2006,06,16,12,29,15.60
2006,06,16,12,30,15.70
2006,06,16,12,31,15.70
2006,06,16,12,32,15.80
2006,06,16,12,33,15.80
2006,06,16,12,34,15.80
2006,06,16,12,35,15.80
2006,06,16,12,36,15.90
2006,06,16,12,37,15.90
2006,06,16,12,38,16.00
2006,06,16,12,39,16.10
2006,06,16,12,40,16.20
2006,06,16,12,41,16.30
2006,06,16,12,42,16.40
2006,06,16,12,43,16.40
2006,06,16,12,44,16.50
2006,06,16,12,45,16.60
2006,06,16,12,46,16.60
2006,06,16,12,47,16.80
2006,06,16,12,48,16.90
2006,06,16,12,49,16.90
2006,06,16,12,50,17.00
2006,06,16,12,51,16.90
2006,06,16,12,52,17.00
2006,06,16,12,53,17.00
2006,06,16,12,54,17.00
2006,06,16,12,55,17.00
2006,06,16,12,56,17.10
2006,06,16,12,57,17.10
2006,06,16,12,58,17.10
2006,06,16,12,59,17.10
2006,06,16,13,00,17.20
2006,06,16,13,01,17.20
2006,06,16,13,02,17.20
2006,06,16,13,03,17.10
2006,06,16,13,04,17.10
2006,06,16,13,05,17.20
2006,06,16,13,06,17.20
2006,06,16,13,07,17.20
2006,06,16,13,08,17.20
2006,06,16,13,09,17.10
2006,06,16,13,10,17.10
2006,06,16,13,11,17.10
2006,06,16,13,12,17.20
2006,06,16,13,13,17.20
2006,06,16,13,14,17.20
2006,06,16,13,15,17.20
2006,06,16,13,16,17.20
2006,06,16,13,17,17.20
2006,06,16,13,18,17.30
2006,06,16,13,19,17.30
2006,06,16,13,20,17.30
2006,06,16,13,21,17.50
2006,06,16,13,22,17.60
2006,06,16,13,23,17.70
2006,06,16,13,24,17.80
2006,06,16,13,25,17.80
2006,06,16,13,26,17.90
2006,06,16,13,27,18.00
2006,06,16,13,28,18.10
2006,06,16,13,29,18.20
2006,06,16,13,30,18.20
2006,06,16,13,31,18.30
2006,06,16,13,32,18.30
2006,06,16,13,33,18.40
2006,06,16,13,34,18.40
2006,06,16,13,35,18.40
2006,06,16,13,36,18.40
2006,06,16,13,37,18.40
2006,06,16,13,38,18.40
2006,06,16,13,39,18.30
2006,06,16,13,40,18.30
2006,06,16,13,41,18.30
2006,06,16,13,42,18.20
2006,06,16,13,43,18.20
2006,06,16,13,44,18.20
2006,06,16,13,45,18.20
2006,06,16,13,46,18.20
2006,06,16,13,47,18.20
2006,06,16,13,48,18.20
2006,06,16,13,49,18.20
2006,06,16,13,50,18.20
2006,06,16,13,51,18.30
2006,06,16,13,52,18.30
2006,06,16,13,53,18.50
2006,06,16,13,54,18.60
2006,06,16,13,55,18.70
2006,06,16,13,56,18.80
2006,06,16,13,57,18.80
2006,06,16,13,58,18.80
2006,06,16,13,59,18.80
2006,06,16,14,00,18.70
2006,06,16,14,01,18.60
2006,06,16,14,02,18.60
2006,06,16,14,03,18.60
2006,06,16,14,04,18.60
2006,06,16,14,05,18.60
2006,06,16,14,06,18.70
2006,06,16,14,07,18.80
2006,06,16,14,08,18.80
2006,06,16,14,09,18.70
2006,06,16,14,10,18.70
2006,06,16,14,11,18.70
2006,06,16,14,12,18.70
2006,06,16,14,13,18.70
2006,06,16,14,14,18.70
2006,06,16,14,15,18.70
2006,06,16,14,16,18.80
2006,06,16,14,17,18.80
2006,06,16,14,18,18.90
2006,06,16,14,19,18.80
2006,06,16,14,20,18.60
2006,06,16,14,21,18.60
2006,06,16,14,22,18.60
2006,06,16,14,23,18.60
2006,06,16,14,24,18.50
2006,06,16,14,25,18.50
2006,06,16,14,26,18.50
2006,06,16,14,27,18.60
2006,06,16,14,28,18.60
2006,06,16,14,29,18.70
2006,06,16,14,30,18.70
2006,06,16,14,31,18.70
2006,06,16,14,32,18.70
2006,06,16,14,33,18.70
2006,06,16,14,34,18.70
2006,06,16,14,35,18.70
2006,06,16,14,36,18.80
2006,06,16,14,37,18.90
2006,06,16,14,38,19.00
2006,06,16,14,39,19.10
2006,06,16,14,40,19.10
2006,06,16,14,41,19.10
2006,06,16,14,42,19.10
2006,06,16,14,43,19.10
2006,06,16,14,44,19.10
2006,06,16,14,45,19.10
2006,06,16,14,46,19.10
2006,06,16,14,47,19.10
2006,06,16,14,48,19.00
2006,06,16,14,49,18.90
2006,06,16,14,50,18.90
2006,06,16,14,51,18.90
2006,06,16,14,52,18.90
2006,06,16,14,53,18.90
2006,06,16,14,54,18.90
2006,06,16,14,55,18.90
2006,06,16,14,56,18.90
2006,06,16,14,57,19.00
2006,06,16,14,58,19.10
2006,06,16,14,59,19.20
2006,06,16,15,00,19.30
2006,06,16,15,01,19.30
2006,06,16,15,02,19.30
2006,06,16,15,03,19.30
2006,06,16,15,04,19.40
2006,06,16,15,05,19.50
2006,06,16,15,06,19.60
2006,06,16,15,07,19.70
2006,06,16,15,08,19.70
2006,06,16,15,09,19.80
2006,06,16,15,10,19.80
2006,06,16,15,11,19.80
2006,06,16,15,12,19.70
2006,06,16,15,13,19.70
2006,06,16,15,14,19.70
2006,06,16,15,15,19.60
2006,06,16,15,16,19.60
2006,06,16,15,17,19.70
2006,06,16,15,18,19.70
2006,06,16,15,19,19.80
2006,06,16,15,20,19.80
2006,06,16,15,21,19.70
2006,06,16,15,22,19.80
2006,06,16,15,23,19.90
2006,06,16,15,24,19.90
2006,06,16,15,25,19.90
2006,06,16,15,26,19.90
2006,06,16,15,27,19.70
2006,06,16,15,28,19.40
2006,06,16,15,29,19.20
2006,06,16,15,30,19.10
2006,06,16,15,31,19.10
2006,06,16,15,32,18.90
2006,06,16,15,33,18.90
2006,06,16,15,34,18.90
2006,06,16,15,35,18.90
2006,06,16,15,36,18.80
2006,06,16,15,37,18.80
2006,06,16,15,38,18.80
2006,06,16,15,39,18.80
2006,06,16,15,40,18.80
2006,06,16,15,41,18.70
2006,06,16,15,42,18.60
2006,06,16,15,43,18.60
2006,06,16,15,44,18.60
2006,06,16,15,45,18.70
2006,06,16,15,46,18.80
2006,06,16,15,47,18.80
2006,06,16,15,48,18.80
2006,06,16,15,49,18.80
2006,06,16,15,50,18.70
2006,06,16,15,51,18.70
2006,06,16,15,52,18.80
2006,06,16,15,53,18.80
2006,06,16,15,54,18.80
2006,06,16,15,55,18.80
2006,06,16,15,56,18.80
2006,06,16,15,57,18.80
2006,06,16,15,58,18.80
2006,06,16,15,59,18.80
2006,06,16,16,00,18.90
2006,06,16,16,01,18.90
2006,06,16,16,02,18.80
2006,06,16,16,03,18.80
2006,06,16,16,04,18.80
2006,06,16,16,05,18.70
2006,06,16,16,06,18.60
2006,06,16,16,07,18.60
2006,06,16,16,08,18.70
2006,06,16,16,09,18.70
2006,06,16,16,10,18.80
2006,06,16,16,11,18.70
2006,06,16,16,12,18.60
2006,06,16,16,13,18.50
2006,06,16,16,14,18.50
2006,06,16,16,15,18.50
2006,06,16,16,16,18.50
2006,06,16,16,17,18.60
2006,06,16,16,18,18.60
2006,06,16,16,19,18.60
2006,06,16,16,20,18.50
2006,06,16,16,21,18.60
2006,06,16,16,22,18.60
2006,06,16,16,23,18.60
2006,06,16,16,24,18.60
2006,06,16,16,25,18.60
2006,06,16,16,26,18.50
2006,06,16,16,27,18.50
2006,06,16,16,28,18.40
2006,06,16,16,29,18.40
2006,06,16,16,30,18.40
2006,06,16,16,31,18.50
2006,06,16,16,32,18.50
2006,06,16,16,33,18.50
2006,06,16,16,34,18.40
2006,06,16,16,35,18.30
2006,06,16,16,36,18.20
2006,06,16,16,37,18.30
2006,06,16,16,38,18.30
2006,06,16,16,39,18.30
2006,06,16,16,40,18.30
2006,06,16,16,41,18.30
2006,06,16,16,42,18.30
2006,06,16,16,43,18.30
2006,06,16,16,44,18.20
2006,06,16,16,45,18.20
2006,06,16,16,46,18.40
2006,06,16,16,47,18.50
2006,06,16,16,48,18.50
2006,06,16,16,49,18.50
2006,06,16,16,50,18.50
2006,06,16,16,51,18.50
2006,06,16,16,52,18.40
2006,06,16,16,53,18.40
2006,06,16,16,54,18.30
2006,06,16,16,55,18.30
2006,06,16,16,56,18.30
2006,06,16,16,57,18.30
2006,06,16,16,58,18.30
2006,06,16,16,59,18.30
2006,06,16,17,00,18.40
2006,06,16,17,01,18.40
2006,06,16,17,02,18.40
2006,06,16,17,03,18.40
2006,06,16,17,04,18.40
2006,06,16,17,05,18.40
2006,06,16,17,06,18.40
2006,06,16,17,07,18.50
2006,06,16,17,08,18.70
2006,06,16,17,09,18.70
2006,06,16,17,10,18.70
2006,06,16,17,11,18.70
2006,06,16,17,12,18.70
2006,06,16,17,13,18.70
2006,06,16,17,14,18.60
2006,06,16,17,15,18.60
2006,06,16,17,16,18.60
2006,06,16,17,17,18.60
2006,06,16,17,18,18.60
2006,06,16,17,19,18.60